Location: Colossi of Memnon
(25.7167°N, 32.6167°E)
Time: 03:20:11
(UTC+00:00)

SL-16 R/B - Pass Details

Date: 05 March 2021
Orbit: 842 x 846 km, 71.0° (Epoch: 10 April)

Event Time Altitude Azimuth Distance (km) Brightness Sun altitude
Exits shadow 02:37:16 34° 309° (NW) 1,363 2.9 -21.5°
Maximum altitude 02:39:22 51° 255° (WSW) 1,057 2.3 -21.0°
Drops below altitude 10° 02:44:48 10° 181° (S) 2,455 4.6 -19.8°
Sets 02:47:18 0° 176° (S) 3,387 5.4 -19.2°
